Location: Unspecified
(0.0000°N, 0.0000°E)
Time: 21:18:22
(UTC-05:00)

Okean 3 - Visible Passes

Search period start: 19 August 2017 00:00
Search period end: 29 August 2017 00:00
Orbit: 577 x 603 km, 82.5° (Epoch: 19 August)

Date Brightness Start Highest point End Pass type
(mag) Time Alt. Az. Time Alt. Az. Time Alt. Az.
19 Aug 4.4 13:41:55 10° NNE 13:45:35 28° E 13:49:17 10° SE visible
20 Aug 3.7 13:49:39 10° NNE 13:53:47 48° E 13:57:57 10° SSE visible
21 Aug 3.4 13:57:41 10° N 14:01:58 86° E 14:06:18 10° S visible
22 Aug 4.3 14:06:00 10° NNW 14:10:10 53° W 14:14:23 10° S visible
23 Aug 5.5 14:14:35 10° NNW 14:18:22 30° W 14:22:10 10° SSW visible
24 Aug 6.4 14:23:36 10° NW 14:26:34 18° W 14:29:32 10° SW visible
25 Aug 7.0 14:33:51 10° W 14:34:46 11° W 14:35:40 10° WSW visible
